FW9731 Weather Reports


Display with metric or nautical units.
time (UTC)temp
F
wind
direction
speed
MPH
gust
MPH
rain 1hr
in
rain 24hr
in
rain mn
in
humidity
%
barometer
mb
20260509161551 84 223 1.0 1.0 0.00 0.00 0.00 73 1012.3
20260509161051 83 87 1.0 2.0 0.00 0.00 0.00 75 1012.3
20260509160547 82 148 0.0 0.0 0.00 0.00 0.00 77 1012.7
20260509160042 82 142 0.0 1.0 0.00 0.00 0.00 77 1012.5
20260509155539 82 227 2.0 2.0 0.00 0.00 0.00 77 1013.0
20260509155035 81 150 0.0 1.0 0.00 0.00 0.00 78 1012.8
20260509154531 80 162 0.0 0.0 0.00 0.00 0.00 80 1012.7
20260509154029 79 141 0.0 0.0 0.00 0.00 0.00 82 1012.6
20260509153526 79 157 0.0 0.0 0.00 0.00 0.00 84 1012.6
20260509153023 78 149 0.0 0.0 0.00 0.00 0.00 84 1012.9
20260509152518 78 121 0.0 1.0 0.00 0.00 0.00 84 1012.9
20260509152015 78 139 0.0 0.0 0.00 0.00 0.00 84 1012.9
20260509151512 78 162 0.0 0.0 0.00 0.00 0.00 84 1012.9
20260509151010 78 128 0.0 1.0 0.00 0.00 0.00 84 1012.9
20260509150507 78 146 0.0 1.0 0.00 0.00 0.00 84 1012.5
20260509150006 77 215 0.0 1.0 0.00 0.00 0.00 85 1012.4
20260509145501 77 166 0.0 1.0 0.00 0.00 0.00 86 1012.5
20260509144955 77 126 0.0 1.0 0.00 0.00 0.00 87 1012.2
20260509144453 76 157 0.0 0.0 0.00 0.00 0.00 88 1012.3
20260509143950 76 1 2.0 3.0 0.00 0.00 0.00 91 1012.6
20260509143447 75 286 2.0 3.0 0.00 0.00 0.00 95 1012.3
20260509142944 74 135 1.0 1.0 0.00 0.00 0.00 98 1012.4
20260509142440 74 346 2.0 2.0 0.00 0.00 0.00 99 1012.4
20260509141936 74 157 0.0 0.0 0.00 0.00 0.00 99 1011.9
20260509141432 73 165 0.0 1.0 0.00 0.00 0.00 99 1012.1
20260509140929 73 158 1.0 1.0 0.00 0.00 0.00 99 1012.5
20260509140426 73 155 1.0 1.0 0.00 0.00 0.00 99 1012.5
20260509135924 72 175 1.0 2.0 0.00 0.00 0.00 99 1012.5
20260509135421 72 139 1.0 1.0 0.00 0.00 0.00 99 1012.6
20260509134919 72 157 1.0 1.0 0.00 0.00 0.00 99 1012.5
20260509134416 72 150 0.0 0.0 0.00 0.00 0.00 99 1012.3
20260509133913 72 155 0.0 0.0 0.00 0.00 0.00 99 1012.0
20260509133409 71 217 2.0 2.0 0.00 0.00 0.00 99 1011.6
20260509132908 71 192 3.0 3.0 0.00 0.00 0.00 99 1011.8
20260509132406 71 141 0.0 0.0 0.00 0.00 0.00 99 1012.0
20260509131903 71 169 4.0 5.0 0.00 0.00 0.00 99 1011.7
20260509131359 71 174 1.0 1.0 0.00 0.00 0.00 99 1012.4
20260509130856 71 157 0.0 0.0 0.00 0.00 0.00 99 1011.6
20260509130351 71 152 0.0 0.0 0.00 0.00 0.00 99 1012.0
20260509125849 71 318 1.0 1.0 0.00 0.00 0.00 99 1011.6
20260509125345 71 160 0.0 0.0 0.00 0.00 0.00 99 1011.3
20260509124841 71 167 0.0 1.0 0.00 0.00 0.00 99 1011.3
20260509124338 70 138 0.0 0.0 0.00 0.00 0.00 99 1010.2
20260509123836 70 178 2.0 3.0 0.00 0.00 0.00 99 1010.4
20260509123333 70 154 0.0 1.0 0.00 0.00 0.00 99 1010.6
20260509122828 70 145 0.0 0.0 0.00 0.00 0.00 99 1010.5
20260509122326 70 90 1.0 2.0 0.00 0.00 0.00 99 1010.2
20260509121823 70 174 5.0 7.0 0.00 0.00 0.00 99 1009.9
20260509121320 70 173 4.0 5.0 0.00 0.00 0.00 99 1009.7
20260509120818 70 149 2.0 2.0 0.00 0.00 0.00 99 1009.7
20260509120316 70 259 2.0 3.0 0.00 0.00 0.00 99 1010.0
20260509115814 70 186 2.0 2.0 0.00 0.00 0.00 99 1010.3
20260509115310 70 207 2.0 3.0 0.00 0.00 0.00 99 1010.4
20260509114808 70 165 2.0 3.0 0.00 0.00 0.00 99 1010.6
20260509114307 70 244 3.0 5.0 0.00 0.00 0.00 99 1010.4
20260509113806 71 236 0.0 1.0 0.00 0.00 0.00 99 1010.5
20260509113302 71 155 5.0 7.0 0.00 0.00 0.00 99 1010.6
20260509112759 71 148 2.0 2.0 0.00 0.00 0.00 99 1010.9
20260509112256 70 152 2.0 2.0 0.00 0.00 0.00 99 1011.0
20260509111753 70 160 2.0 3.0 0.00 0.00 0.00 99 1011.0
20260509111250 70 252 3.0 3.0 0.00 0.00 0.00 99 1011.4
20260509110747 70 131 0.0 0.0 0.00 0.00 0.00 99 1011.3
20260509110244 70 150 1.0 1.0 0.00 0.00 0.00 99 1011.3
20260509105742 70 218 1.0 2.0 0.00 0.00 0.00 99 1011.4
20260509105239 71 170 1.0 2.0 0.00 0.00 0.00 99 1011.8
20260509104736 71 154 2.0 2.0 0.00 0.00 0.00 99 1012.2
20260509104233 71 165 1.0 1.0 0.00 0.00 0.00 99 1012.3
20260509103731 71 249 2.0 3.0 0.00 0.00 0.00 99 1012.1
20260509103228 71 207 2.0 2.0 0.00 0.00 0.00 99 1012.2
20260509102726 71 139 1.0 1.0 0.00 0.00 0.00 99 1012.0
20260509102223 71 190 0.0 0.0 0.00 0.00 0.00 99 1012.0
20260509101719 71 160 0.0 0.0 0.00 0.00 0.00 99 1012.0
20260509101216 71 158 0.0 0.0 0.00 0.00 0.00 99 1012.2
20260509100713 71 164 1.0 1.0 0.00 0.00 0.00 99 1012.4
20260509100210 70 162 0.0 0.0 0.00 0.00 0.00 99 1012.3
20260509095707 70 162 0.0 0.0 0.00 0.00 0.00 99 1012.5
20260509095204 70 161 0.0 0.0 0.00 0.00 0.00 99 1012.3
20260509094701 70 168 0.0 0.0 0.00 0.00 0.00 99 1012.4
20260509094158 70 159 0.0 0.0 0.00 0.00 0.00 99 1012.3
20260509093656 71 159 0.0 0.0 0.00 0.00 0.00 99 1012.3
20260509093153 71 158 0.0 0.0 0.00 0.00 0.00 99 1012.2
20260509092651 71 163 0.0 0.0 0.00 0.00 0.00 99 1011.9
20260509092149 71 159 0.0 0.0 0.00 0.00 0.00 99 1012.2
20260509091647 71 163 0.0 0.0 0.00 0.00 0.00 99 1012.3
20260509091143 71 171 0.0 0.0 0.00 0.00 0.00 99 1012.7
20260509090641 71 163 0.0 0.0 0.00 0.00 0.00 99 1012.7
20260509090138 71 158 0.0 0.0 0.00 0.00 0.00 99 1012.7
20260509085635 71 151 0.0 0.0 0.00 0.00 0.00 99 1012.5
20260509085131 71 161 0.0 0.0 0.00 0.00 0.00 99 1012.2
20260509084628 71 157 0.0 0.0 0.00 0.00 0.00 99 1012.5
20260509084125 71 146 0.0 0.0 0.00 0.00 0.00 99 1012.5
20260509083623 71 168 0.0 0.0 0.00 0.00 0.00 99 1012.4
20260509083119 71 163 0.0 0.0 0.00 0.00 0.00 99 1012.2
20260509082617 71 164 0.0 0.0 0.00 0.00 0.00 99 1012.5
20260509082113 71 157 0.0 0.0 0.00 0.00 0.00 99 1012.4
20260509081610 71 152 0.0 0.0 0.00 0.00 0.00 99 1012.4
20260509081107 71 156 0.0 0.0 0.00 0.00 0.00 99 1012.6
20260509080606 71 189 1.0 2.0 0.00 0.00 0.00 99 1012.6
20260509075601 71 169 2.0 2.0 0.00 0.00 0.00 99 1012.8
20260509075058 71 178 1.0 1.0 0.00 0.00 0.00 99 1012.6
20260509074555 71 171 1.0 2.0 0.00 0.00 0.00 99 1012.3
20260509074051 71 165 1.0 2.0 0.00 0.00 0.00 99 1011.9
20260509073548 71 160 1.0 1.0 0.00 0.00 0.00 99 1012.2
20260509073045 71 174 2.0 3.0 0.00 0.00 0.00 99 1012.5
20260509072541 70 155 0.0 0.0 0.00 0.00 0.00 99 1012.2
20260509072038 70 176 2.0 2.0 0.00 0.00 0.00 99 1012.4
20260509071535 70 159 0.0 0.0 0.00 0.00 0.00 99 1012.6
20260509071033 70 159 0.0 0.0 0.00 0.00 0.00 99 1012.6
20260509070529 70 151 0.0 0.0 0.00 0.00 0.00 99 1012.6
20260509070025 69 156 0.0 0.0 0.00 0.00 0.00 99 1012.4
20260509065521 69 158 0.0 0.0 0.00 0.00 0.00 99 1012.6
20260509065017 69 161 0.0 0.0 0.00 0.00 0.00 99 1012.8
20260509064515 69 162 0.0 0.0 0.00 0.00 0.00 99 1012.4
20260509064013 69 159 0.0 0.0 0.00 0.00 0.00 99 1012.5
20260509063508 69 162 0.0 0.0 0.00 0.00 0.00 99 1012.5
20260509063006 68 167 1.0 1.0 0.00 0.00 0.00 99 1012.7
20260509062503 68 163 0.0 0.0 0.00 0.00 0.00 99 1012.3
20260509062001 68 163 0.0 0.0 0.00 0.00 0.00 99 1012.4
20260509061457 68 165 0.0 0.0 0.00 0.00 0.00 99 1012.2
20260509060954 68 156 0.0 0.0 0.00 0.00 0.00 99 1011.7
20260509060452 67 168 0.0 0.0 0.00 0.00 0.00 99 1011.8
20260509055947 67 165 0.0 0.0 0.00 0.00 0.00 99 1011.7
20260509055443 67 162 0.0 0.0 0.00 0.00 0.00 99 1011.5
20260509054939 67 162 0.0 0.0 0.00 0.00 0.00 99 1011.5
20260509054436 67 163 0.0 0.0 0.00 0.00 0.00 99 1011.7
20260509053934 67 163 0.0 0.0 0.00 0.00 0.00 99 1011.7
20260509053432 66 164 0.0 0.0 0.00 0.00 0.00 99 1011.9
20260509052929 66 163 0.0 0.0 0.00 0.00 0.00 99 1011.9
20260509052427 66 164 0.0 0.0 0.00 0.00 0.00 99 1012.0
20260509051925 66 162 0.0 0.0 0.00 0.00 0.00 99 1012.3
20260509051422 66 161 0.0 0.0 0.00 0.00 0.00 99 1012.1
20260509050919 66 161 0.0 0.0 0.00 0.00 0.00 99 1012.0
20260509050415 66 161 0.0 0.0 0.00 0.00 0.00 99 1012.2
20260509045912 66 162 0.0 0.0 0.00 0.00 0.00 99 1012.1
20260509045409 66 163 0.0 0.0 0.00 0.00 0.00 99 1012.1
20260509044906 66 163 0.0 0.0 0.00 0.00 0.00 99 1012.2
20260509044404 66 164 0.0 0.0 0.00 0.00 0.00 99 1012.4
20260509043901 66 159 0.0 0.0 0.00 0.00 0.00 99 1012.2
20260509043356 66 165 0.0 0.0 0.00 0.00 0.00 99 1012.1
20260509042852 66 165 0.0 0.0 0.00 0.00 0.00 99 1012.1
20260509042349 66 165 0.0 0.0 0.00 0.00 0.00 99 1012.1
20260509041846 66 165 0.0 0.0 0.00 0.00 0.00 99 1011.8
20260509041343 67 169 0.0 0.0 0.00 0.00 0.00 99 1012.0
20260509040841 66 165 0.0 0.0 0.00 0.00 0.00 99 1011.8
20260509040338 67 165 0.0 0.0 0.00 0.00 0.00 99 1011.8
20260509035835 67 175 0.0 0.0 0.00 0.00 0.00 99 1011.7
20260509035332 67 169 0.0 0.0 0.00 0.00 0.00 99 1011.7
20260509034828 67 166 0.0 0.0 0.00 0.00 0.00 99 1011.5
20260509034327 67 164 0.0 0.0 0.00 0.00 0.00 99 1011.5
20260509033823 67 164 0.0 0.0 0.00 0.00 0.00 99 1010.9
20260509033320 67 164 0.0 0.0 0.00 0.00 0.00 99 1011.0
20260509032817 68 164 0.0 0.0 0.00 0.00 0.00 99 1011.4
20260509032314 68 163 0.0 0.0 0.00 0.00 0.00 99 1011.2
20260509031812 68 161 0.0 0.0 0.00 0.00 0.00 99 1011.2
20260509031309 68 161 0.0 0.0 0.00 0.00 0.00 99 1011.0
20260509030807 68 159 0.0 0.0 0.00 0.00 0.00 99 1010.9
20260509030304 69 159 0.0 0.0 0.00 0.00 0.00 99 1011.0
20260509025801 69 177 0.0 0.0 0.00 0.00 0.00 99 1011.0
20260509025256 69 187 0.0 0.0 0.00 0.00 0.00 99 1010.8
20260509024752 69 182 0.0 0.0 0.00 0.00 0.00 99 1010.7
20260509024248 69 161 0.0 0.0 0.00 0.00 0.00 99 1010.5
20260509023746 70 160 0.0 0.0 0.00 0.00 0.00 99 1010.6
20260509023243 70 160 0.0 0.0 0.00 0.00 0.00 99 1010.7
20260509022739 70 160 0.0 0.0 0.00 0.00 0.00 99 1010.5
20260509022237 70 160 0.0 0.0 0.00 0.00 0.00 99 1010.7
20260509021733 70 162 0.0 0.0 0.00 0.00 0.00 98 1010.5
20260509021230 70 162 0.0 0.0 0.00 0.00 0.00 98 1010.3
20260509020728 71 162 0.0 0.0 0.00 0.00 0.00 98 1010.2
20260509020225 71 163 0.0 0.0 0.00 0.00 0.00 98 1010.3
20260509015723 71 162 0.0 0.0 0.00 0.00 0.00 97 1010.3
20260509015222 72 163 0.0 0.0 0.00 0.00 0.00 97 1010.2
20260509014718 72 163 0.0 0.0 0.00 0.00 0.00 97 1010.3
20260509014215 72 163 0.0 0.0 0.00 0.00 0.00 97 1010.4
20260509013711 72 162 0.0 0.0 0.00 0.00 0.00 96 1010.5
20260509013207 72 162 0.0 0.0 0.00 0.00 0.00 96 1010.6
20260509012704 72 161 0.0 0.0 0.00 0.00 0.00 96 1010.2
20260509012200 72 160 0.0 0.0 0.00 0.00 0.00 95 1010.1
20260509011658 73 160 0.0 0.0 0.00 0.00 0.00 95 1010.1
20260509011155 73 160 0.0 0.0 0.00 0.00 0.00 95 1010.2
20260509010653 73 159 0.0 0.0 0.00 0.00 0.00 94 1010.3
20260509010149 73 158 0.0 0.0 0.00 0.00 0.00 94 1010.5
20260509005647 73 172 0.0 0.0 0.00 0.00 0.00 94 1010.6
20260509005143 74 157 0.0 0.0 0.00 0.00 0.00 93 1010.4
20260509004639 74 161 0.0 0.0 0.00 0.00 0.00 93 1010.4
20260509004136 74 161 0.0 0.0 0.00 0.00 0.00 93 1010.1
20260509003635 74 161 0.0 0.0 0.00 0.00 0.00 92 1010.2
20260509003132 74 161 0.0 0.0 0.00 0.00 0.00 92 1010.3
20260509002629 74 157 0.0 0.0 0.00 0.00 0.00 92 1010.4
20260509002126 74 162 0.0 0.0 0.00 0.00 0.00 92 1010.5
20260509001624 74 160 0.0 0.0 0.00 0.00 0.00 91 1010.3
20260509001119 74 184 2.0 2.0 0.00 0.00 0.00 91 1010.2
20260509000618 75 171 0.0 1.0 0.00 0.00 0.00 91 1010.4
20260509000114 75 157 0.0 0.0 0.00 0.00 0.00 91 1010.2
20260508235612 75 158 0.0 0.0 0.00 0.00 0.00 90 1010.2
20260508235108 75 161 1.0 1.0 0.00 0.00 0.00 90 1010.2
20260508234606 75 178 1.0 1.0 0.00 0.00 0.00 90 1010.4
20260508234102 75 158 0.0 0.0 0.00 0.00 0.00 90 1010.3
20260508233601 75 175 3.0 3.0 0.00 0.00 0.00 89 1010.7
20260508233058 75 193 1.0 1.0 0.00 0.00 0.00 89 1010.7
20260508232555 75 188 1.0 1.0 0.00 0.00 0.00 89 1010.3
20260508232052 75 193 2.0 2.0 0.00 0.00 0.00 89 1010.3
20260508231550 75 157 0.0 0.0 0.00 0.00 0.00 88 1010.3
20260508231046 76 165 2.0 3.0 0.00 0.00 0.00 87 1010.4
20260508230543 76 156 0.0 0.0 0.00 0.00 0.00 88 1010.7
20260508230040 76 156 0.0 0.0 0.00 0.00 0.00 87 1010.6
20260508225537 76 155 0.0 0.0 0.00 0.00 0.00 88 1010.7
20260508225033 76 169 0.0 1.0 0.00 0.00 0.00 87 1010.7
20260508224532 76 155 0.0 0.0 0.00 0.00 0.00 87 1010.5
20260508224029 77 146 2.0 2.0 0.00 0.00 0.00 86 1010.5
20260508223527 77 158 0.0 0.0 0.00 0.00 0.00 86 1010.6
20260508223023 77 308 1.0 2.0 0.00 0.00 0.00 86 1010.5
20260508222521 76 172 1.0 1.0 0.00 0.00 0.00 87 1010.9
20260508222017 76 148 0.0 0.0 0.00 0.00 0.00 87 1010.6
20260508221514 76 156 0.0 0.0 0.00 0.00 0.00 87 1011.0
20260508221010 76 151 0.0 1.0 0.00 0.00 0.00 86 1011.0
20260508220507 76 158 0.0 0.0 0.00 0.00 0.00 87 1011.0
20260508220002 76 156 0.0 0.0 0.00 0.00 0.00 89 1010.9
20260508215459 75 155 0.0 0.0 0.00 0.00 0.00 88 1011.3
20260508214956 75 160 0.0 1.0 0.00 0.00 0.00 87 1011.7
20260508214454 75 168 1.0 1.0 0.00 0.00 0.00 87 1011.4
20260508213950 75 154 0.0 0.0 0.00 0.00 0.00 88 1011.4
20260508213448 76 127 1.0 1.0 0.00 0.00 0.00 87 1011.2
20260508212942 75 153 0.0 0.0 0.00 0.00 0.00 88 1011.4
20260508212440 75 148 0.0 0.0 0.00 0.00 0.00 88 1011.5
20260508211935 75 149 0.0 0.0 0.00 0.00 0.00 88 1011.7
20260508211431 75 151 0.0 0.0 0.00 0.00 0.00 88 1011.4
20260508210929 74 141 0.0 1.0 0.00 0.00 0.00 88 1012.1
20260508210425 74 165 1.0 1.0 0.00 0.00 0.00 88 1012.2
20260508205922 74 161 0.0 0.0 0.00 0.00 0.00 89 1012.3
20260508205419 74 163 0.0 0.0 0.00 0.00 0.00 88 1012.2
20260508204915 74 161 0.0 1.0 0.00 0.00 0.00 88 1012.2
20260508204413 74 154 0.0 1.0 0.00 0.00 0.00 88 1012.1
20260508203908 74 227 0.0 1.0 0.00 0.00 0.00 88 1012.3
20260508203404 73 153 0.0 0.0 0.00 0.00 0.00 88 1012.5
20260508202900 73 188 1.0 2.0 0.00 0.00 0.00 87 1012.6
20260508202357 73 163 1.0 1.0 0.00 0.00 0.00 87 1012.5
20260508201855 74 164 1.0 1.0 0.00 0.00 0.00 87 1012.4
20260508201351 74 165 0.0 1.0 0.00 0.00 0.00 87 1012.5
20260508200847 74 163 3.0 3.0 0.00 0.00 0.00 85 1012.4
20260508200345 74 154 0.0 1.0 0.00 0.00 0.00 86 1012.6
20260508195840 75 153 0.0 0.0 0.00 0.00 0.00 85 1012.6
20260508195337 74 165 0.0 0.0 0.00 0.00 0.00 85 1012.6
20260508194833 75 143 0.0 0.0 0.00 0.00 0.00 85 1012.6
20260508194331 75 154 0.0 0.0 0.00 0.00 0.00 85 1012.7
20260508193827 74 149 0.0 0.0 0.00 0.00 0.00 85 1012.8
20260508193324 74 146 0.0 0.0 0.00 0.00 0.00 86 1013.0
20260508192820 74 140 0.0 1.0 0.00 0.00 0.00 85 1012.8
20260508192318 74 159 0.0 0.0 0.00 0.00 0.00 86 1012.9
20260508191815 73 148 0.0 0.0 0.00 0.00 0.00 87 1012.9
20260508191312 73 216 2.0 2.0 0.00 0.00 0.00 87 1013.2
20260508190809 72 154 0.0 0.0 0.00 0.00 0.00 89 1013.2
20260508190305 71 154 0.0 0.0 0.00 0.00 0.00 89 1013.5
20260508185802 71 150 0.0 0.0 0.00 0.00 0.00 90 1013.5
20260508185259 71 152 0.0 0.0 0.00 0.00 0.00 90 1013.3
20260508184756 71 153 0.0 0.0 0.00 0.00 0.00 90 1013.2
20260508184254 70 150 0.0 0.0 0.00 0.00 0.00 91 1013.5
20260508183750 70 151 0.0 0.0 0.00 0.00 0.00 91 1013.7
20260508183247 70 153 0.0 0.0 0.00 0.00 0.00 92 1013.6
20260508182743 69 143 0.0 0.0 0.00 0.00 0.00 92 1013.7
20260508182239 69 147 0.0 0.0 0.00 0.00 0.00 92 1013.7
20260508181735 69 152 0.0 0.0 0.00 0.00 0.00 93 1014.0
20260508181232 68 152 0.0 0.0 0.00 0.00 0.00 93 1013.9
20260508180729 68 152 0.0 0.0 0.00 0.00 0.00 93 1013.9
20260508180226 68 142 0.0 0.0 0.00 0.00 0.00 93 1014.0
20260508175722 67 152 0.0 0.0 0.00 0.00 0.00 93 1014.1
20260508175219 67 149 0.0 0.0 0.00 0.00 0.00 94 1014.6
20260508174717 68 150 0.0 0.0 0.00 0.00 0.00 94 1014.4
20260508174214 67 153 0.0 0.0 0.00 0.00 0.00 94 1014.5
20260508173710 67 152 0.0 0.0 0.00 0.00 0.00 93 1014.6
20260508173206 67 153 0.0 0.0 0.00 0.00 0.00 93 1014.7
20260508172704 67 151 0.0 0.0 0.00 0.00 0.00 93 1015.0
20260508172200 67 151 0.0 0.0 0.00 0.00 0.00 93 1015.1
20260508171657 67 153 0.0 0.0 0.00 0.00 0.00 92 1015.1
20260508171153 67 156 0.0 0.0 0.00 0.00 0.00 92 1015.0
20260508170650 67 149 0.0 0.0 0.00 0.00 0.00 92 1015.2
20260508170148 67 153 0.0 0.0 0.00 0.00 0.00 92 1015.0
20260508165645 67 148 0.0 0.0 0.00 0.00 0.00 92 1014.9
20260508165142 67 153 0.0 0.0 0.00 0.00 0.00 91 1015.3
20260508164638 67 152 0.0 0.0 0.00 0.00 0.00 92 1015.5
20260508164135 67 154 0.0 0.0 0.00 0.00 0.00 91 1015.6
20260508163633 67 152 0.0 0.0 0.00 0.00 0.00 92 1015.3
20260508163130 66 152 0.0 0.0 0.00 0.00 0.00 91 1015.4
20260508162626 66 151 0.0 0.0 0.00 0.00 0.00 91 1015.6
20260508162123 67 144 0.0 0.0 0.00 0.00 0.00 91 1015.6